Regional Weather Roundup
Issued by NWS State College, PA

Home | Current Version | Previous Version | Graphics & Text | Print | Product List | Glossary Off
Versions: 1 2 3 4 5 6 7 8 9 10 11 12 13 14 15 16 17 18 19 20 21 22 23 24 25 26 27 28 29 30 31 32 33 34 35 36 37 38 39 40 41 42 43 44 45 46 47 48 49 50

000
ASUS41 KCTP 011903
RWRCTP

REGIONAL WEATHER ROUNDUP
NATIONAL WEATHER SERVICE STATE COLLEGE PA
300 PM EDT SUN MAY 01 2016

Note: "fair" indicates few or no clouds below 12,000 feet with no
significant weather and/or obstructions to visibility.

* = STATION THAT DOES NOT REPORT PRECIPITATION /E.G. RAIN...SNOW...ETC/
    THUNDER OR FOG.

PAZ002>004-007>009-013>016-020>023-029>032-012000-
WESTERN PENNSYLVANIA

CITY           SKY/WX    TMP DP  RH WIND       PRES   REMARKS
ERIE           FOG       49  47  93 NE8       29.96R VSB 1/4
MEADVILLE        N/A    N/A N/A N/A MISG      29.92S
FRANKLIN*      PTSUNNY   70  55  60 W9        29.94S
NEW CASTLE     MOCLDY    70  58  65 SW8       29.93S
BEAVER COUNTY  NOT AVBL
BUTLER*        PTSUNNY   70  59  68 SW8G18    29.96F
PITTSBURGH INT MOSUNNY   72  58  61 NW8       29.93F
PITTSBURGH     MOSUNNY   69  58  67 W7        29.93F
INDIANA*       CLOUDY    66  63  88 SW10      29.97F
LATROBE        PTSUNNY   66  66 100 SW9       29.96S
WASHINGTON CO* MOSUNNY   72  61  68 W6        29.95F
$$

PAZ004>006-010>012-017>019-024>028-033>037-041-042-045-046-049>053-012000-
CENTRAL PENNSYLVANIA

CITY           SKY/WX    TMP DP  RH WIND       PRES   REMARKS
BRADFORD       CLOUDY    59  56  89 S5        29.94S
DUBOIS         LGT RAIN  58  56  93 E5        29.94S FOG
CLEARFIELD     CLOUDY    57  53  86 VRB5      29.97F
JOHNSTOWN      CLOUDY    66  52  60 W10       29.96S
ALTOONA        CLOUDY    59  54  83 SE12      29.98F
STATE COLLEGE  CLOUDY    50  48  93 E6        30.01S FOG
WILLIAMSPORT   CLOUDY    49  45  86 E8        30.05F
SELINSGROVE    CLOUDY    48  45  89 SE6       30.07S FOG
FT INDIANTOWN  CLOUDY    47  47 100 E3        30.08F FOG
CAPITAL CITY   CLOUDY    53  48  83 SE10      30.07F
HARRISBURG     CLOUDY    53  48  83 SE9       30.06F
YORK           CLOUDY    52  50  93 SE9       30.06F FOG
$$

PAZ038>040-043-044-047-048-054-055-060>062-067>071-012000-
EASTERN PENNSYLVANIA

CITY           SKY/WX    TMP DP  RH WIND       PRES   REMARKS
SCRANTON       CLOUDY    46  43  89 CALM      30.07F
MOUNT POCONO   RAIN      41  40  96 SE9       30.07S VSB 1/4
ALLENTOWN      LGT RAIN  49  46  90 SE3       30.11F FOG
QUAKERTOWN*    CLOUDY    48  46  93 SE7       30.11F
READING        CLOUDY    50  45  83 SE6       30.09F
LANCASTER      CLOUDY    49  48  97 SE9       30.09S
COATESVILLE    CLOUDY    48  48 100 SE5       30.10S
POTTSTOWN      CLOUDY    49  48  97 VRB5      30.10F
BLUE BELL      CLOUDY    48  46  93 E3        30.10S
DOYLESTOWN     CLOUDY    48  47  96 VRB3      30.11F
WILLOW GROVE   NOT AVBL
NORTH PHILA    CLOUDY    52  49  89 E7        30.13F FOG
PHILADELPHIA   LGT RAIN  52  48  86 SE6       30.12F
$$



USA.gov is the U.S. government's official web portal to all federal, state and local government web resources and services.